Mandan, ND

2:26 AM CDT on May 28, 2017 (GMT -0500)
Mandan

Weather History for KY19 - October, 2013

Change the Weather History Date:

Thursday, October 17, 2013

  Actual Average (KBIS) Record (KBIS)
Temperature  
Mean Temperature 39 °F -  
Max Temperature 46 °F 55 °F 84 °F (1914)
Min Temperature 32 °F 30 °F 11 °F (1948)
Degree Days  
Heating Degree Days 26    
Moisture  
Dew Point 31 °F    
Average Humidity 73    
Maximum Humidity 100    
Minimum Humidity 49    
Precipitation  
Precipitation 0.07 in - - ()
Sea Level Pressure  
Sea Level Pressure 30.01 in    
Wind  
Wind Speed 15 mph (NW)    
Max Wind Speed 21 mph    
Max Gust Speed 26 mph    
Visibility 9 miles    
Events Rain    
Averages and records for this station are not official NWS values.
T = Trace of Precipitation, MM = Missing Value Source: NWS Daily Summary

Daily Weather History Graph

Daily Weather History Graph

Search for Another Location

Airport or City:

Trip Planner

Search our weather history database for the weather conditions in past years. The results will help you decide how hot, cold, wet, or windy it might be!

Date:

Astronomy

Oct. 17, 2013 Rise Set
Actual Time 8:04 AM CDT 6:52 PM CDT
Civil Twilight 7:33 AM CDT 7:22 PM CDT
Nautical Twilight 6:58 AM CDT 7:58 PM CDT
Astronomical Twilight 6:23 AM CDT 8:33 PM CDT
Moon 6:09 PM CDT (10/17) 6:35 AM CDT (10/17)
Length of Visible Light 11h 49m
Length of Day
10h 47m
Waxing Gibbous, 98% of the Moon is Illuminated
Oct 17
Waxing Gibbous
Oct 18
Full
Oct 26
Last Quarter
Nov 3
New
Nov 9
First Quarter

Hourly Weather History & Observations

Time (CDT) Temp. Windchill Dew Point Humidity Pressure Visibility Wind Dir Wind Speed Gust Speed Precip Events Conditions
12:15 AM 46.4 °F 40.1 °F 37.4 °F 71% 29.92 in 10.0 mi NNW 15.0 mph - N/A   Overcast
12:35 AM 46.4 °F 39.2 °F 35.6 °F 66% 29.92 in 10.0 mi North 18.4 mph 24.2 mph N/A   Overcast
12:55 AM 46.4 °F 39.0 °F 35.6 °F 66% 29.92 in 10.0 mi NNW 19.6 mph 26.5 mph N/A   Overcast
1:15 AM 44.6 °F 37.2 °F 35.6 °F 71% 29.92 in 10.0 mi North 17.3 mph 23.0 mph N/A   Overcast
1:35 AM 44.6 °F 36.4 °F 35.6 °F 71% 29.93 in 10.0 mi North 20.7 mph 26.5 mph N/A   Overcast
1:55 AM 42.8 °F 35.1 °F 35.6 °F 76% 29.93 in 10.0 mi NNW 16.1 mph - N/A   Overcast
2:15 AM 42.8 °F 34.3 °F 35.6 °F 76% 29.94 in 10.0 mi NNW 19.6 mph 23.0 mph N/A   Overcast
2:35 AM 42.8 °F 34.3 °F 37.4 °F 81% 29.94 in 10.0 mi NNW 19.6 mph 24.2 mph N/A   Overcast
2:55 AM 41.0 °F 32.2 °F 37.4 °F 87% 29.95 in 10.0 mi North 18.4 mph 24.2 mph N/A   Overcast
3:15 AM 41.0 °F 32.2 °F 37.4 °F 87% 29.96 in 10.0 mi NNW 18.4 mph 24.2 mph N/A   Overcast
3:35 AM 41.0 °F 33.1 °F 37.4 °F 87% 29.96 in 10.0 mi NNW 15.0 mph - N/A Rain Light Rain
3:55 AM 41.0 °F 32.2 °F 37.4 °F 87% 29.97 in 8.0 mi North 18.4 mph 23.0 mph N/A Rain Light Rain
4:15 AM 39.2 °F 31.2 °F 37.4 °F 93% 29.97 in 5.0 mi NNW 13.8 mph - 0.02 in Rain Light Rain
4:35 AM 39.2 °F 31.6 °F 37.4 °F 93% 29.97 in 7.0 mi NW 12.7 mph 19.6 mph 0.05 in Rain Light Rain
4:55 AM 39.2 °F 30.2 °F 37.4 °F 93% 29.98 in 10.0 mi North 17.3 mph 25.3 mph 0.06 in Rain Light Rain
5:15 AM 37.4 °F 28.5 °F 35.6 °F 93% 29.99 in 7.0 mi NNW 15.0 mph - N/A Rain Light Rain
5:35 AM 37.4 °F 27.5 °F 35.6 °F 93% 29.99 in 7.0 mi NNW 18.4 mph - 0.01 in Rain Light Rain
5:55 AM 35.6 °F 25.9 °F 35.6 °F 100% 30.00 in 10.0 mi NNW 16.1 mph 24.2 mph 0.01 in Rain Light Rain
6:15 AM 35.6 °F 26.2 °F 35.6 °F 100% 30.00 in 10.0 mi NNW 15.0 mph - N/A   Overcast
6:35 AM 35.6 °F 27.1 °F 33.8 °F 93% 30.01 in 10.0 mi North 12.7 mph - N/A   Overcast
6:55 AM 35.6 °F 28.0 °F 33.8 °F 93% 30.01 in 10.0 mi NNW 10.4 mph - N/A   Overcast
7:15 AM 35.6 °F 28.6 °F 33.8 °F 93% 30.01 in 10.0 mi NW 9.2 mph - N/A   Overcast
7:35 AM 35.6 °F 28.0 °F 33.8 °F 93% 30.02 in 10.0 mi NW 10.4 mph - N/A   Overcast
7:55 AM 35.6 °F 27.5 °F 32.0 °F 87% 30.02 in 10.0 mi NW 11.5 mph 16.1 mph N/A   Overcast
8:15 AM 35.6 °F 27.1 °F 32.0 °F 87% 30.03 in 10.0 mi NW 12.7 mph - N/A   Overcast
8:55 AM 35.6 °F 27.1 °F 32.0 °F 87% 30.04 in 10.0 mi NW 12.7 mph 17.3 mph N/A   Overcast
9:15 AM 35.6 °F 26.6 °F 32.0 °F 87% 30.05 in 10.0 mi NNW 13.8 mph - N/A   Overcast
9:35 AM 37.4 °F 28.9 °F 32.0 °F 81% 30.05 in 10.0 mi NNW 13.8 mph 20.7 mph N/A   Overcast
9:55 AM 37.4 °F 29.3 °F 32.0 °F 81% 30.06 in 10.0 mi NNW 12.7 mph - N/A   Overcast
10:15 AM 37.4 °F 29.8 °F 32.0 °F 81% 30.06 in 9.0 mi NW 11.5 mph 17.3 mph N/A   Overcast
10:35 AM 37.4 °F 28.9 °F 32.0 °F 81% 30.06 in 10.0 mi NW 13.8 mph - N/A   Mostly Cloudy
10:55 AM 41.0 °F 33.1 °F 32.0 °F 70% 30.06 in 10.0 mi NW 15.0 mph - N/A   Partly Cloudy
11:15 AM 41.0 °F 31.9 °F 30.2 °F 65% 30.06 in 10.0 mi NNW 19.6 mph 23.0 mph N/A   Clear
11:35 AM 41.0 °F 32.2 °F 28.4 °F 61% 30.06 in 10.0 mi NNW 18.4 mph 25.3 mph N/A   Clear
11:55 AM 41.0 °F 32.8 °F 28.4 °F 61% 30.06 in 10.0 mi NNW 16.1 mph - N/A   Mostly Cloudy
12:15 PM 41.0 °F 32.2 °F 26.6 °F 57% 30.06 in 10.0 mi NNW 18.4 mph 24.2 mph N/A   Mostly Cloudy
12:35 PM 41.0 °F 32.2 °F 26.6 °F 57% 30.06 in 10.0 mi NNW 18.4 mph - N/A   Overcast
12:55 PM 42.8 °F 34.3 °F 28.4 °F 57% 30.06 in 10.0 mi NNW 19.6 mph 26.5 mph N/A   Mostly Cloudy
1:15 PM 42.8 °F 34.5 °F 26.6 °F 53% 30.06 in 10.0 mi NNW 18.4 mph - N/A   Overcast
1:35 PM 44.6 °F 36.9 °F 28.4 °F 53% 30.05 in 10.0 mi NNW 18.4 mph 21.9 mph N/A   Mostly Cloudy
1:55 PM 42.8 °F 35.8 °F 28.4 °F 57% 30.05 in 7.0 mi NW 13.8 mph 19.6 mph N/A   Overcast
2:15 PM 44.6 °F 37.8 °F 28.4 °F 53% 30.04 in 3.0 mi NNW 15.0 mph 20.7 mph N/A   Haze
2:35 PM 44.6 °F 37.8 °F 28.4 °F 53% 30.04 in 3.0 mi NNW 15.0 mph - N/A   Haze
2:55 PM 42.8 °F 36.2 °F 26.6 °F 53% 30.04 in 5.0 mi NNW 12.7 mph - N/A   Haze
3:15 PM 44.6 °F 37.4 °F 26.6 °F 49% 30.04 in 10.0 mi NNW 16.1 mph 20.7 mph N/A   Overcast
3:35 PM 44.6 °F 37.4 °F 26.6 °F 49% 30.03 in 10.0 mi NW 16.1 mph - N/A   Overcast
3:55 PM 44.6 °F 37.8 °F 26.6 °F 49% 30.03 in 10.0 mi NW 15.0 mph 19.6 mph N/A   Overcast
4:15 PM 44.6 °F 38.1 °F 26.6 °F 49% 30.03 in 10.0 mi NW 13.8 mph 19.6 mph N/A   Mostly Cloudy
4:35 PM 44.6 °F 37.4 °F 26.6 °F 49% 30.03 in 10.0 mi NNW 16.1 mph - N/A   Mostly Cloudy
4:55 PM 44.6 °F 38.8 °F 26.6 °F 49% 30.03 in 10.0 mi NW 11.5 mph - N/A   Mostly Cloudy
5:15 PM 44.6 °F 38.1 °F 26.6 °F 49% 30.03 in 10.0 mi NW 13.8 mph 17.3 mph N/A   Mostly Cloudy
5:35 PM 44.6 °F 38.8 °F 26.6 °F 49% 30.02 in 10.0 mi NW 11.5 mph - N/A   Overcast
5:55 PM 44.6 °F 39.7 °F 26.6 °F 49% 30.02 in 10.0 mi NW 9.2 mph - N/A   Mostly Cloudy
6:15 PM 44.6 °F 38.4 °F 26.6 °F 49% 30.02 in 9.0 mi NW 12.7 mph 17.3 mph N/A   Overcast
6:35 PM 42.8 °F 38.0 °F 28.4 °F 57% 30.03 in 9.0 mi NNW 8.1 mph - N/A   Overcast
6:55 PM 42.8 °F 39.3 °F 28.4 °F 57% 30.03 in 10.0 mi NW 5.8 mph - N/A   Overcast
7:15 PM 37.4 °F 31.4 °F 28.4 °F 70% 30.03 in 10.0 mi WNW 8.1 mph - N/A   Scattered Clouds
7:35 PM 33.8 °F 27.7 °F 26.6 °F 75% 30.03 in 10.0 mi WNW 6.9 mph - N/A   Clear
7:55 PM 35.6 °F 29.2 °F 26.6 °F 70% 30.03 in 10.0 mi WNW 8.1 mph - N/A   Scattered Clouds
8:15 PM 35.6 °F 29.9 °F 26.6 °F 70% 30.03 in 10.0 mi WNW 6.9 mph - N/A   Mostly Cloudy
8:35 PM 35.6 °F 29.9 °F 26.6 °F 70% 30.03 in 10.0 mi WNW 6.9 mph - N/A   Mostly Cloudy
8:55 PM 35.6 °F 29.9 °F 28.4 °F 75% 30.03 in 10.0 mi NW 6.9 mph - N/A   Mostly Cloudy
9:15 PM 35.6 °F 29.9 °F 28.4 °F 75% 30.03 in 10.0 mi WNW 6.9 mph - N/A   Overcast
9:35 PM 32.0 °F 25.6 °F 28.4 °F 87% 30.03 in 10.0 mi West 6.9 mph - N/A   Overcast
9:55 PM 32.0 °F 27.5 °F 28.4 °F 87% 30.03 in 10.0 mi West 4.6 mph - N/A   Mostly Cloudy
10:15 PM 33.8 °F 28.6 °F 28.4 °F 81% 30.03 in 10.0 mi WSW 5.8 mph - N/A   Scattered Clouds
10:35 PM 32.0 °F 26.4 °F 28.4 °F 87% 30.03 in 10.0 mi West 5.8 mph - N/A   Mostly Cloudy
10:55 PM 32.0 °F 25.6 °F 28.4 °F 87% 30.02 in 10.0 mi West 6.9 mph - N/A   Partly Cloudy
11:15 PM 32.0 °F 25.6 °F 28.4 °F 87% 30.02 in 10.0 mi West 6.9 mph - N/A   Clear
11:35 PM 33.8 °F 27.7 °F 28.4 °F 81% 30.02 in 10.0 mi West 6.9 mph - N/A   Clear
11:55 PM 32.0 °F 24.2 °F 28.4 °F 87% 30.01 in 10.0 mi West 9.2 mph - N/A   Clear